Weather in Terrasini

Italy     38°09′06″N   13°05′02″E
temp.,
°C
wind,
m/s
gust,
m/s
humid.,
%
clouds,
%
prec.,
mm/h
press.,
hPa
HPBL,
m
11 may, tue
tue1123:00+19s12675 0.0 101515
02:00+19sse44675 0.0 101342
05:00+19ssw22655 0.0 101317
08:00+19sw226737 0.0 101324
11:00+20wnw44655 0.0 101444
14:00+20sw237563 0.0 101367
17:00+18w111287100 0.1 1013340
20:00+18w810840 0.1 1015437
12 may, wed
wed1223:00+18wsw710800 0.0 1016578
02:00+17w89765 0.0 1014786
05:00+17w99741 0.3 10141128
08:00+17wnw887424 0.6 10151153
11:00+17wnw887082 0.3 10161157
14:00+17w676767 0.3 10161124
17:00+18wnw67670 0.1 1016890
20:00+17w677098 0.1 1015655
13 may, thu
thu1323:00+17wsw78715 0.0 1016680
02:00+17sw68784 0.0 1014486
05:00+17sw68765 0.0 1013499
08:00+17sw79765 0.0 1013748
11:00+18wsw810792 0.1 1014827
14:00+18wsw912785 0.1 1013675
17:00+18w912794 0.0 1013765
20:00+18wsw577982 0.3 1013365
14 may, fri
fri1423:00+18ssw66758 0.0 1013259
02:00+17ssw77780 0.0 1013337
05:00+17ssw66800 0.0 1013355
08:00+17ssw66770 0.0 1014330
11:00+19wnw33705 0.0 1015111
14:00+20wnw3373100 0.0 101457
17:00+20ene667396 0.0 1013197
20:00+20se4466100 0.0 101239
15 may, sat
sat1523:00+19se2273100 0.0 101356
02:00+19ssw6666100 0.0 1012105
05:00+18w81078100 0.1 1012317
08:00+17wsw81182100 5.5 1014714
11:00+17w1112720 0.1 10151078
14:00+17wnw1010711 0.1 1015989
17:00+18w9972100 0.0 1015930
20:00+19w8117056 0.1 1015667